Torna al catalogo

CZ-4 DEB

AttivoSSO
NORAD 26444·DEBRIS·🇨🇳 China

Lanciato Oct 14, 1999 da Taiyuan Satellite Launch Center

Loading…

Prossimi Passaggi (prossime 24 ore)

TLE

AggiornatoSource: Space-Track

Epoca: Sep 14, 2026, 13:00 UTC

1 26444U 99057KR  26257.54204140  .00001584  00000-0  27189-3 0  9990
2 26444  98.5203 345.8351 0067978 138.9857 350.4170 14.68724811402172

Traccia CZ-4 DEB in tempo reale con AllMySat

Download on the App Store